When you browse on this site, cookies collect data to enhance your experience and personalize the content and advertising you see.
Visit our Privacy Policy to learn more. By continuing to use the site, you agree to this use of cookies and data.
  • In Hungary
  • List of Countries
  • For 7 days
  • Water Temperature
  • Weather Map
  • News
  • Weather Widgets
  • user-avatar
    Login

    Hourly Weather Komintern

    Today, 24 January, Friday

    Time Temperature Precipitation Wind Pressure Humidity
    00:00 -3°C° 0 mm 4 mps 744 mmHg 81%
    01:00 -4°C° 0 mm 5 mps 744 mmHg 82%
    02:00 -4°C° 0 mm 5 mps 743 mmHg 83%
    03:00 -4°C° 0.2 mm 5 mps 742 mmHg 87%
    04:00 -4°C° 0.2 mm 6 mps 742 mmHg 91%
    05:00 -4°C° 0.2 mm 6 mps 741 mmHg 95%
    06:00 -3°C° 0.3 mm 6 mps 740 mmHg 95%
    07:00 -3°C° 0.3 mm 6 mps 740 mmHg 96%
    08:00 -2°C° 0.3 mm 6 mps 739 mmHg 96%
    09:00 -2°C° 0 mm 6 mps 739 mmHg 95%
    10:00 -1°C° 0 mm 6 mps 739 mmHg 94%
    11:00 +1°C° 0 mm 5 mps 738 mmHg 93%
    12:00 +1°C° 0 mm 6 mps 738 mmHg 92%
    13:00 +1°C° 0 mm 6 mps 738 mmHg 91%
    14:00 +2°C° 0 mm 7 mps 737 mmHg 90%
    15:00 +2°C° 0.1 mm 7 mps 737 mmHg 90%
    16:00 +2°C° 0.1 mm 6 mps 737 mmHg 90%
    17:00 +2°C° 0.1 mm 6 mps 737 mmHg 91%
    18:00 +2°C° 0 mm 6 mps 737 mmHg 91%
    19:00 +2°C° 0 mm 6 mps 737 mmHg 91%
    20:00 +2°C° 0 mm 6 mps 737 mmHg 92%
    21:00 +1°C° 0.1 mm 6 mps 737 mmHg 92%
    22:00 +1°C° 0.1 mm 6 mps 737 mmHg 92%
    23:00 +1°C° 0.1 mm 6 mps 737 mmHg 92%

    Tomorrow, 25 January, Saturday

    Time Temperature Precipitation Wind Pressure Humidity
    00:00 +1°C° 0 mm 6 mps 737 mmHg 92%
    01:00 +1°C° 0 mm 6 mps 736 mmHg 91%
    02:00 +1°C° 0 mm 5 mps 736 mmHg 91%
    03:00 +1°C° 0 mm 5 mps 736 mmHg 91%
    04:00 +1°C° 0 mm 5 mps 736 mmHg 92%
    05:00 +1°C° 0 mm 5 mps 735 mmHg 92%
    06:00 +1°C° 0.1 mm 5 mps 735 mmHg 92%
    07:00 +1°C° 0.1 mm 5 mps 735 mmHg 92%
    08:00 +1°C° 0.1 mm 5 mps 735 mmHg 92%
    09:00 +1°C° 0.1 mm 6 mps 735 mmHg 88%
    10:00 0°C° 0.1 mm 7 mps 735 mmHg 85%
    11:00 +2°C° 0.1 mm 7 mps 735 mmHg 81%
    12:00 0°C° 0 mm 7 mps 735 mmHg 78%
    13:00 0°C° 0 mm 7 mps 735 mmHg 76%
    14:00 +1°C° 0 mm 6 mps 735 mmHg 73%
    15:00 +1°C° 0 mm 6 mps 736 mmHg 74%
    16:00 -1°C° 0 mm 6 mps 736 mmHg 75%
    17:00 -2°C° 0 mm 6 mps 736 mmHg 76%
    18:00 -2°C° 0 mm 6 mps 737 mmHg 76%
    19:00 -2°C° 0 mm 6 mps 737 mmHg 76%
    20:00 -3°C° 0 mm 6 mps 738 mmHg 76%
    21:00 -2°C° 0 mm 5 mps 738 mmHg 75%
    22:00 -2°C° 0 mm 5 mps 739 mmHg 74%
    23:00 -4°C° 0 mm 5 mps 740 mmHg 74%

    Day after tomorrow, 26 January, Sunday

    Time Temperature Precipitation Wind Pressure Humidity
    00:00 -4°C° 0 mm 5 mps 740 mmHg 75%
    01:00 -4°C° 0 mm 5 mps 740 mmHg 76%
    02:00 -4°C° 0 mm 5 mps 741 mmHg 78%
    03:00 -3°C° 0 mm 4 mps 742 mmHg 78%
    04:00 -3°C° 0 mm 4 mps 742 mmHg 79%
    05:00 -4°C° 0 mm 4 mps 743 mmHg 80%
    06:00 -4°C° 0 mm 3 mps 743 mmHg 82%
    07:00 -4°C° 0 mm 3 mps 743 mmHg 84%
    08:00 -3°C° 0 mm 2 mps 744 mmHg 86%
    09:00 -2°C° 0 mm 3 mps 744 mmHg 82%
    10:00 -1°C° 0 mm 3 mps 744 mmHg 78%
    11:00 0°C° 0 mm 3 mps 745 mmHg 74%
    12:00 -1°C° 0 mm 4 mps 744 mmHg 71%
    13:00 0°C° 0 mm 5 mps 744 mmHg 68%
    14:00 0°C° 0 mm 5 mps 744 mmHg 64%
    15:00 0°C° 0 mm 5 mps 744 mmHg 70%
    16:00 0°C° 0 mm 5 mps 744 mmHg 76%
    17:00 -1°C° 0 mm 5 mps 744 mmHg 82%
    18:00 -1°C° 0 mm 5 mps 744 mmHg 83%
    19:00 -1°C° 0 mm 5 mps 744 mmHg 85%
    20:00 0°C° 0 mm 5 mps 744 mmHg 86%
    21:00 -1°C° 0 mm 5 mps 744 mmHg 87%
    22:00 -1°C° 0 mm 5 mps 744 mmHg 88%
    23:00 -1°C° 0 mm 4 mps 744 mmHg 89%

    27 January, Monday

    Time Temperature Precipitation Wind Pressure Humidity
    00:00 -1°C° 0 mm 4 mps 744 mmHg 90%
    01:00 -1°C° 0 mm 4 mps 744 mmHg 91%
    02:00 -1°C° 0 mm 4 mps 744 mmHg 91%
    03:00 -1°C° 0 mm 4 mps 744 mmHg 91%
    04:00 -1°C° 0 mm 4 mps 744 mmHg 91%
    05:00 -2°C° 0 mm 4 mps 744 mmHg 91%
    06:00 -1°C° 0 mm 4 mps 744 mmHg 90%
    07:00 -1°C° 0 mm 4 mps 743 mmHg 89%
    08:00 -1°C° 0 mm 4 mps 743 mmHg 88%
    09:00 -1°C° 0 mm 4 mps 744 mmHg 89%
    10:00 -1°C° 0 mm 4 mps 744 mmHg 90%
    11:00 0°C° 0 mm 4 mps 744 mmHg 91%
    12:00 0°C° 0 mm 4 mps 743 mmHg 93%
    13:00 +1°C° 0 mm 3 mps 743 mmHg 95%
    14:00 +1°C° 0 mm 3 mps 743 mmHg 97%
    15:00 +1°C° 0.1 mm 3 mps 743 mmHg 97%
    16:00 0°C° 0.1 mm 3 mps 743 mmHg 97%
    17:00 0°C° 0.1 mm 3 mps 743 mmHg 98%
    18:00 0°C° 0 mm 3 mps 742 mmHg 98%
    19:00 0°C° 0 mm 3 mps 742 mmHg 97%
    20:00 0°C° 0 mm 3 mps 742 mmHg 97%
    21:00 0°C° 0 mm 3 mps 742 mmHg 97%
    22:00 0°C° 0 mm 3 mps 742 mmHg 97%
    23:00 -1°C° 0 mm 3 mps 741 mmHg 97%

    28 January, Tuesday

    Time Temperature Precipitation Wind Pressure Humidity
    00:00 -1°C° 0 mm 2 mps 741 mmHg 97%
    01:00 -1°C° 0 mm 2 mps 741 mmHg 97%
    02:00 -1°C° 0 mm 2 mps 740 mmHg 97%
    03:00 -1°C° 0.1 mm 2 mps 740 mmHg 97%
    04:00 -1°C° 0.1 mm 2 mps 740 mmHg 97%
    05:00 -1°C° 0.1 mm 2 mps 739 mmHg 97%
    06:00 -1°C° 0.1 mm 2 mps 739 mmHg 97%
    07:00 -1°C° 0.1 mm 2 mps 739 mmHg 97%
    08:00 -1°C° 0.1 mm 2 mps 739 mmHg 97%
    09:00 -1°C° 0 mm 2 mps 739 mmHg 97%
    10:00 -1°C° 0 mm 2 mps 739 mmHg 97%
    11:00 +1°C° 0 mm 2 mps 739 mmHg 96%
    12:00 +1°C° 0 mm 2 mps 738 mmHg 96%
    13:00 0°C° 0 mm 3 mps 738 mmHg 96%
    14:00 +1°C° 0 mm 3 mps 738 mmHg 96%
    15:00 +1°C° 0 mm 3 mps 738 mmHg 96%
    16:00 0°C° 0 mm 4 mps 737 mmHg 96%
    17:00 0°C° 0 mm 4 mps 737 mmHg 96%
    18:00 -1°C° 0 mm 5 mps 737 mmHg 95%
    19:00 -1°C° 0 mm 5 mps 737 mmHg 94%
    20:00 -1°C° 0 mm 5 mps 736 mmHg 93%
    21:00 -1°C° 0 mm 5 mps 736 mmHg 92%
    22:00 -1°C° 0 mm 5 mps 736 mmHg 92%
    23:00 -2°C° 0 mm 5 mps 736 mmHg 91%

    29 January, Wednesday

    Time Temperature Precipitation Wind Pressure Humidity
    00:00 -2°C° 0 mm 6 mps 735 mmHg 91%
    01:00 -2°C° 0 mm 6 mps 735 mmHg 91%
    02:00 -2°C° 0 mm 6 mps 734 mmHg 91%
    03:00 -2°C° 0 mm 6 mps 734 mmHg 92%
    04:00 -2°C° 0 mm 6 mps 733 mmHg 94%
    05:00 -2°C° 0 mm 6 mps 733 mmHg 95%
    06:00 -1°C° 0.8 mm 6 mps 733 mmHg 96%
    07:00 -1°C° 0.8 mm 6 mps 733 mmHg 96%
    08:00 0°C° 0.8 mm 5 mps 733 mmHg 97%
    09:00 0°C° 0.3 mm 5 mps 733 mmHg 93%
    10:00 0°C° 0.3 mm 5 mps 733 mmHg 89%
    11:00 +1°C° 0.3 mm 4 mps 733 mmHg 86%
    12:00 +1°C° 0 mm 5 mps 733 mmHg 83%
    13:00 +1°C° 0 mm 5 mps 733 mmHg 80%
    14:00 +1°C° 0 mm 5 mps 733 mmHg 78%
    15:00 +1°C° 0.1 mm 5 mps 733 mmHg 81%
    16:00 -1°C° 0.1 mm 6 mps 733 mmHg 84%
    17:00 -1°C° 0.1 mm 6 mps 732 mmHg 87%
    18:00 -1°C° 0.3 mm 6 mps 732 mmHg 89%
    19:00 -2°C° 0.3 mm 6 mps 732 mmHg 91%
    20:00 -2°C° 0.3 mm 6 mps 732 mmHg 93%
    21:00 -2°C° 0.1 mm 6 mps 732 mmHg 88%
    22:00 -2°C° 0.1 mm 6 mps 732 mmHg 82%
    23:00 -3°C° 0.1 mm 6 mps 732 mmHg 77%
    Show more